| time (UTC) | temp C | wind direction | speed KPH | gust KPH | rain 1hr cm | rain 24hr cm | rain mn cm | humidity % | barometer mb |
| 20260507015016 | 23 | 225 | 3.2 | 25.7 | 0.00 | 0.00 | 0.00 | 22 | 1017.2 |
| 20260507014016 | 24 | 0.0 | 0.0 | 0.00 | 0.00 | 0.00 | 22 | 1017.0 | |
| 20260507013037 | 24 | 0.0 | 0.0 | 0.00 | 0.00 | 0.00 | 21 | 1016.7 | |
| 20260507012016 | 25 | 0.0 | 0.0 | 0.00 | 0.00 | 0.00 | 21 | 1017.0 | |
| 20260507011015 | 25 | 0.0 | 0.0 | 0.00 | 0.00 | 0.00 | 20 | 1016.9 | |
| 20260507010020 | 25 | 0.0 | 0.0 | 0.00 | 0.00 | 0.00 | 20 | 1016.9 | |
| 20260507005015 | 26 | 0.0 | 0.0 | 0.00 | 0.00 | 0.00 | 19 | 1016.7 | |
| 20260507004015 | 25 | 0.0 | 0.0 | 0.00 | 0.00 | 0.00 | 19 | 1016.5 | |
| 20260507003016 | 26 | 0.0 | 0.0 | 0.00 | 0.00 | 0.00 | 19 | 1016.3 | |
| 20260507002015 | 26 | 0.0 | 0.0 | 0.00 | 0.00 | 0.00 | 18 | 1016.8 | |
| 20260507001015 | 26 | 0.0 | 0.0 | 0.00 | 0.00 | 0.00 | 18 | 1016.5 | |
| 20260507000016 | 26 | 0.0 | 0.0 | 0.00 | 0.00 | 0.00 | 18 | 1016.5 | |
| 20260506235015 | 26 | 0.0 | 0.0 | 0.00 | 0.00 | 0.00 | 18 | 1016.2 | |
| 20260506234015 | 27 | 0.0 | 0.0 | 0.00 | 0.00 | 0.00 | 17 | 1016.4 | |
| 20260506233015 | 27 | 0.0 | 0.0 | 0.00 | 0.00 | 0.00 | 17 | 1016.4 | |
| 20260506230015 | 27 | 0.0 | 0.0 | 0.00 | 0.00 | 0.00 | 16 | 1016.1 | |
| 20260506225032 | 27 | 0.0 | 0.0 | 0.00 | 0.00 | 0.00 | 15 | 1016.1 | |
| 20260506224035 | 28 | 0.0 | 0.0 | 0.00 | 0.00 | 0.00 | 15 | 1016.6 | |
| 20260506223018 | 28 | 0.0 | 0.0 | 0.00 | 0.00 | 0.00 | 15 | 1016.5 | |
| 20260506222016 | 28 | 0.0 | 0.0 | 0.00 | 0.00 | 0.00 | 14 | 1016.5 | |
| 20260506221017 | 29 | 0.0 | 0.0 | 0.00 | 0.00 | 0.00 | 13 | 1016.9 | |
| 20260506220037 | 28 | 0.0 | 0.0 | 0.00 | 0.00 | 0.00 | 13 | 1016.4 | |
| 20260506215017 | 29 | 0.0 | 0.0 | 0.00 | 0.00 | 0.00 | 13 | 1016.9 | |
| 20260506214018 | 29 | 0.0 | 0.0 | 0.00 | 0.00 | 0.00 | 12 | 1016.9 | |
| 20260506213017 | 29 | 0.0 | 0.0 | 0.00 | 0.00 | 0.00 | 12 | 1017.0 | |
| 20260506212017 | 29 | 0.0 | 0.0 | 0.00 | 0.00 | 0.00 | 12 | 1016.9 | |
| 20260506211016 | 29 | 0.0 | 0.0 | 0.00 | 0.00 | 0.00 | 11 | 1017.0 | |
| 20260506210018 | 30 | 0.0 | 0.0 | 0.00 | 0.00 | 0.00 | 11 | 1017.2 | |
| 20260506205016 | 29 | 0.0 | 0.0 | 0.00 | 0.00 | 0.00 | 11 | 1017.2 | |
| 20260506204017 | 29 | 0.0 | 0.0 | 0.00 | 0.00 | 0.00 | 10 | 1017.3 | |
| 20260506203016 | 29 | 0.0 | 0.0 | 0.00 | 0.00 | 0.00 | 11 | 1017.6 | |
| 20260506202017 | 29 | 0.0 | 0.0 | 0.00 | 0.00 | 0.00 | 11 | 1017.6 | |
| 20260506201016 | 29 | 0.0 | 0.0 | 0.00 | 0.00 | 0.00 | 10 | 1017.7 | |
| 20260506200037 | 29 | 0.0 | 0.0 | 0.00 | 0.00 | 0.00 | 11 | 1017.8 | |
| 20260506195017 | 28 | 0.0 | 0.0 | 0.00 | 0.00 | 0.00 | 10 | 1017.7 | |
| 20260506194017 | 29 | 0.0 | 0.0 | 0.00 | 0.00 | 0.00 | 10 | 1017.9 | |
| 20260506193036 | 29 | 0.0 | 0.0 | 0.00 | 0.00 | 0.00 | 10 | 1018.3 | |
| 20260506192016 | 29 | 0.0 | 0.0 | 0.00 | 0.00 | 0.00 | 10 | 1017.9 | |
| 20260506191017 | 29 | 0.0 | 0.0 | 0.00 | 0.00 | 0.00 | 10 | 1017.9 | |
| 20260506190057 | 28 | 0.0 | 0.0 | 0.00 | 0.00 | 0.00 | 10 | 1017.8 | |
| 20260506185016 | 28 | 0.0 | 0.0 | 0.00 | 0.00 | 0.00 | 9 | 1018.1 | |
| 20260506184017 | 28 | 0.0 | 0.0 | 0.00 | 0.00 | 0.00 | 9 | 1018.2 | |
| 20260506183016 | 28 | 0.0 | 0.0 | 0.00 | 0.00 | 0.00 | 8 | 1018.4 | |
| 20260506182016 | 28 | 0.0 | 0.0 | 0.00 | 0.00 | 0.00 | 9 | 1018.5 | |
| 20260506181021 | 28 | 0.0 | 0.0 | 0.00 | 0.00 | 0.00 | 9 | 1018.6 | |
| 20260506180016 | 28 | 0.0 | 0.0 | 0.00 | 0.00 | 0.00 | 8 | 1018.7 | |
| 20260506175016 | 28 | 0.0 | 0.0 | 0.00 | 0.00 | 0.00 | 8 | 1018.8 | |
| 20260506174016 | 27 | 0.0 | 0.0 | 0.00 | 0.00 | 0.00 | 8 | 1018.4 | |
| 20260506173017 | 27 | 0.0 | 0.0 | 0.00 | 0.00 | 0.00 | 7 | 1018.5 | |
| 20260506172016 | 27 | 0.0 | 0.0 | 0.00 | 0.00 | 0.00 | 7 | 1018.5 | |
| 20260506171017 | 27 | 0.0 | 0.0 | 0.00 | 0.00 | 0.00 | 8 | 1018.5 | |
| 20260506170016 | 26 | 0.0 | 0.0 | 0.00 | 0.00 | 0.00 | 7 | 1018.2 | |
| 20260506165018 | 26 | 0.0 | 0.0 | 0.00 | 0.00 | 0.00 | 8 | 1018.2 | |
| 20260506164016 | 26 | 0.0 | 0.0 | 0.00 | 0.00 | 0.00 | 8 | 1018.2 | |
| 20260506163016 | 26 | 0.0 | 0.0 | 0.00 | 0.00 | 0.00 | 8 | 1018.2 | |
| 20260506162016 | 25 | 0.0 | 0.0 | 0.00 | 0.00 | 0.00 | 9 | 1017.9 | |
| 20260506161037 | 25 | 0.0 | 0.0 | 0.00 | 0.00 | 0.00 | 9 | 1018.0 | |
| 20260506160016 | 24 | 0.0 | 0.0 | 0.00 | 0.00 | 0.00 | 10 | 1017.8 | |
| 20260506155016 | 24 | 0.0 | 0.0 | 0.00 | 0.00 | 0.00 | 11 | 1017.9 | |
| 20260506154016 | 23 | 0.0 | 0.0 | 0.00 | 0.00 | 0.00 | 13 | 1017.5 | |
| 20260506153016 | 22 | 0.0 | 0.0 | 0.00 | 0.00 | 0.00 | 15 | 1017.7 | |
| 20260506152016 | 22 | 0.0 | 0.0 | 0.00 | 0.00 | 0.00 | 16 | 1017.2 | |
| 20260506151016 | 21 | 0.0 | 0.0 | 0.00 | 0.00 | 0.00 | 18 | 1017.4 | |
| 20260506150016 | 21 | 0.0 | 0.0 | 0.00 | 0.00 | 0.00 | 20 | 1017.1 | |
| 20260506145015 | 21 | 0.0 | 0.0 | 0.00 | 0.00 | 0.00 | 22 | 1017.2 | |
| 20260506144016 | 20 | 0.0 | 0.0 | 0.00 | 0.00 | 0.00 | 23 | 1017.4 | |
| 20260506143015 | 20 | 0.0 | 0.0 | 0.00 | 0.00 | 0.00 | 23 | 1016.9 | |
| 20260506142037 | 20 | 0.0 | 0.0 | 0.00 | 0.00 | 0.00 | 23 | 1017.0 | |
| 20260506141015 | 19 | 0.0 | 0.0 | 0.00 | 0.00 | 0.00 | 23 | 1016.9 | |
| 20260506140016 | 19 | 0.0 | 0.0 | 0.00 | 0.00 | 0.00 | 25 | 1016.4 | |
| 20260506135016 | 18 | 0.0 | 0.0 | 0.00 | 0.00 | 0.00 | 27 | 1016.3 | |
| 20260506134017 | 17 | 0.0 | 0.0 | 0.00 | 0.00 | 0.00 | 37 | 1016.0 | |
| 20260506133036 | 17 | 0.0 | 0.0 | 0.00 | 0.00 | 0.00 | 42 | 1016.0 | |
| 20260506132015 | 16 | 0.0 | 0.0 | 0.00 | 0.00 | 0.00 | 46 | 1015.5 | |
| 20260506131020 | 15 | 0.0 | 0.0 | 0.00 | 0.00 | 0.00 | 48 | 1015.0 | |
| 20260506130035 | 14 | 0.0 | 0.0 | 0.00 | 0.00 | 0.00 | 52 | 1014.5 | |
| 20260506125015 | 14 | 0.0 | 0.0 | 0.00 | 0.00 | 0.00 | 56 | 1014.5 | |
| 20260506124030 | 13 | 0.0 | 8.0 | 0.00 | 0.00 | 0.00 | 57 | 1014.4 | |
| 20260506122015 | 13 | 180 | 1.6 | 9.7 | 0.00 | 0.00 | 0.00 | 59 | 1014.3 |
| 20260506121016 | 14 | 180 | 1.6 | 9.7 | 0.00 | 0.00 | 0.00 | 57 | 1014.2 |
| 20260506120015 | 15 | 180 | 1.6 | 9.7 | 0.00 | 0.00 | 0.00 | 53 | 1014.5 |
| 20260506115015 | 15 | 270 | 1.6 | 11.3 | 0.00 | 0.00 | 0.00 | 52 | 1014.5 |
| 20260506114015 | 15 | 248 | 1.6 | 12.9 | 0.00 | 0.00 | 0.00 | 54 | 1014.6 |
| 20260506113016 | 15 | 248 | 4.8 | 17.7 | 0.00 | 0.00 | 0.00 | 53 | 1014.5 |
| 20260506112016 | 15 | 248 | 6.4 | 22.5 | 0.00 | 0.00 | 0.00 | 55 | 1014.5 |
| 20260506111017 | 15 | 248 | 3.2 | 19.3 | 0.00 | 0.00 | 0.00 | 57 | 1014.3 |
| 20260506110037 | 15 | 225 | 1.6 | 12.9 | 0.00 | 0.00 | 0.00 | 57 | 1014.4 |
| 20260506105038 | 15 | 0.0 | 0.0 | 0.00 | 0.00 | 0.00 | 59 | 1014.5 | |
| 20260506103017 | 15 | 248 | 1.6 | 9.7 | 0.00 | 0.00 | 0.00 | 60 | 1014.5 |
| 20260506102018 | 15 | 0.0 | 0.0 | 0.00 | 0.00 | 0.00 | 60 | 1014.5 | |
| 20260506101017 | 15 | 248 | 1.6 | 9.7 | 0.00 | 0.00 | 0.00 | 61 | 1014.5 |
| 20260506100017 | 15 | 248 | 3.2 | 16.1 | 0.00 | 0.00 | 0.00 | 62 | 1014.6 |
| 20260506095017 | 15 | 225 | 3.2 | 14.5 | 0.00 | 0.00 | 0.00 | 61 | 1014.5 |
| 20260506094039 | 15 | 248 | 4.8 | 12.9 | 0.00 | 0.00 | 0.00 | 60 | 1014.5 |
| 20260506093018 | 15 | 248 | 3.2 | 12.9 | 0.00 | 0.00 | 0.00 | 60 | 1014.6 |
| 20260506092037 | 15 | 248 | 1.6 | 11.3 | 0.00 | 0.00 | 0.00 | 58 | 1014.7 |
| 20260506091017 | 16 | 248 | 4.8 | 22.5 | 0.00 | 0.00 | 0.00 | 57 | 1015.2 |
| 20260506090017 | 16 | 248 | 9.7 | 29.0 | 0.00 | 0.00 | 0.00 | 57 | 1015.2 |
| 20260506085016 | 16 | 248 | 6.4 | 24.1 | 0.00 | 0.00 | 0.00 | 56 | 1015.3 |
| 20260506084017 | 16 | 248 | 4.8 | 20.9 | 0.00 | 0.00 | 0.00 | 55 | 1015.3 |
| 20260506083017 | 16 | 248 | 4.8 | 19.3 | 0.00 | 0.00 | 0.00 | 53 | 1015.4 |
| 20260506082037 | 16 | 248 | 3.2 | 16.1 | 0.00 | 0.00 | 0.00 | 52 | 1015.5 |
| 20260506081018 | 16 | 248 | 8.0 | 22.5 | 0.00 | 0.00 | 0.00 | 51 | 1015.3 |
| 20260506073017 | 17 | 248 | 4.8 | 11.3 | 0.00 | 0.00 | 0.00 | 46 | 1016.0 |
| 20260506072016 | 17 | 248 | 3.2 | 9.7 | 0.00 | 0.00 | 0.00 | 44 | 1016.1 |
| 20260506062016 | 18 | 0.0 | 0.0 | 0.00 | 0.00 | 0.00 | 41 | 1016.7 | |
| 20260506061026 | 18 | 0.0 | 0.0 | 0.00 | 0.00 | 0.00 | 42 | 1016.7 | |
| 20260506045016 | 20 | 0.0 | 8.0 | 0.00 | 0.00 | 0.00 | 36 | 1017.2 | |
| 20260506044038 | 20 | 225 | 3.2 | 11.3 | 0.00 | 0.00 | 0.00 | 35 | 1017.0 |
| 20260506043016 | 20 | 225 | 4.8 | 16.1 | 0.00 | 0.00 | 0.00 | 34 | 1016.8 |
| 20260506042016 | 21 | 225 | 3.2 | 14.5 | 0.00 | 0.00 | 0.00 | 33 | 1016.9 |
| 20260506041016 | 21 | 248 | 6.4 | 17.7 | 0.00 | 0.00 | 0.00 | 32 | 1016.7 |
| 20260506040017 | 21 | 248 | 6.4 | 16.1 | 0.00 | 0.00 | 0.00 | 31 | 1016.9 |
| 20260506035016 | 21 | 248 | 4.8 | 22.5 | 0.00 | 0.00 | 0.00 | 30 | 1016.7 |
| 20260506034036 | 21 | 0.0 | 0.0 | 0.00 | 0.00 | 0.00 | 29 | 1016.5 | |
| 20260506033016 | 22 | 0.0 | 0.0 | 0.00 | 0.00 | 0.00 | 28 | 1016.4 | |
| 20260506032056 | 22 | 0.0 | 0.0 | 0.00 | 0.00 | 0.00 | 27 | 1016.4 | |
| 20260506031016 | 22 | 0.0 | 0.0 | 0.00 | 0.00 | 0.00 | 26 | 1016.4 | |
| 20260506030016 | 22 | 0.0 | 0.0 | 0.00 | 0.00 | 0.00 | 25 | 1016.8 | |
| 20260506025016 | 23 | 0.0 | 0.0 | 0.00 | 0.00 | 0.00 | 24 | 1016.7 | |
| 20260506024017 | 23 | 0.0 | 0.0 | 0.00 | 0.00 | 0.00 | 23 | 1016.7 | |
| 20260506023016 | 23 | 0.0 | 0.0 | 0.00 | 0.00 | 0.00 | 22 | 1016.5 | |
| 20260506022017 | 23 | 0.0 | 0.0 | 0.00 | 0.00 | 0.00 | 21 | 1016.8 | |
| 20260506021016 | 24 | 0.0 | 0.0 | 0.00 | 0.00 | 0.00 | 20 | 1016.6 | |
| 20260506020016 | 24 | 0.0 | 0.0 | 0.00 | 0.00 | 0.00 | 18 | 1016.5 |